| time (UTC) | temp C | wind direction | speed KPH | gust KPH | rain 1hr cm | rain 24hr cm | rain mn cm | humidity % | barometer mb |
| 20260506042250 | 13 | 294 | 0.0 | 1.6 | 0.00 | 0.00 | 0.00 | 32 | 1016.0 |
| 20260506041750 | 13 | 294 | 0.0 | 0.0 | 0.00 | 0.00 | 0.00 | 33 | 1015.9 |
| 20260506041250 | 13 | 294 | 0.0 | 6.4 | 0.00 | 0.00 | 0.00 | 34 | 1015.8 |
| 20260506040750 | 13 | 294 | 0.0 | 6.4 | 0.00 | 0.00 | 0.00 | 35 | 1015.7 |
| 20260506040250 | 13 | 294 | 0.0 | 4.8 | 0.00 | 0.00 | 0.00 | 36 | 1015.6 |
| 20260506035750 | 14 | 294 | 0.0 | 4.8 | 0.00 | 0.00 | 0.00 | 37 | 1015.4 |
| 20260506034750 | 14 | 294 | 0.0 | 6.4 | 0.00 | 0.00 | 0.00 | 38 | 1015.3 |
| 20260506034250 | 15 | 294 | 4.8 | 6.4 | 0.00 | 0.00 | 0.00 | 39 | 1015.2 |
| 20260506033749 | 15 | 294 | 1.6 | 6.4 | 0.00 | 0.00 | 0.00 | 39 | 1015.1 |
| 20260506033249 | 15 | 294 | 0.0 | 1.6 | 0.00 | 0.00 | 0.00 | 40 | 1015.1 |
| 20260506032749 | 15 | 294 | 0.0 | 3.2 | 0.00 | 0.00 | 0.00 | 41 | 1015.0 |
| 20260506032249 | 15 | 294 | 1.6 | 6.4 | 0.00 | 0.00 | 0.00 | 41 | 1014.8 |
| 20260506031249 | 15 | 296 | 0.0 | 6.4 | 0.00 | 0.00 | 0.00 | 43 | 1014.7 |
| 20260506030749 | 15 | 296 | 0.0 | 6.4 | 0.00 | 0.00 | 0.00 | 43 | 1014.7 |
| 20260506030249 | 16 | 298 | 0.0 | 8.0 | 0.00 | 0.00 | 0.00 | 44 | 1014.6 |
| 20260506025749 | 16 | 298 | 0.0 | 8.0 | 0.00 | 0.00 | 0.00 | 44 | 1014.5 |
| 20260506025249 | 16 | 304 | 0.0 | 9.7 | 0.00 | 0.00 | 0.00 | 45 | 1014.3 |
| 20260506024749 | 16 | 302 | 0.0 | 9.7 | 0.00 | 0.00 | 0.00 | 46 | 1014.3 |
| 20260506023748 | 16 | 303 | 4.8 | 12.9 | 0.00 | 0.00 | 0.00 | 47 | 1014.0 |
| 20260506023249 | 16 | 305 | 1.6 | 12.9 | 0.00 | 0.00 | 0.00 | 48 | 1013.8 |
| 20260506022748 | 16 | 318 | 0.0 | 8.0 | 0.00 | 0.00 | 0.00 | 49 | 1013.9 |
| 20260506022248 | 17 | 271 | 1.6 | 6.4 | 0.00 | 0.00 | 0.00 | 50 | 1013.9 |
| 20260506021748 | 17 | 273 | 1.6 | 14.5 | 0.00 | 0.00 | 0.00 | 50 | 1013.9 |
| 20260506020749 | 17 | 294 | 1.6 | 14.5 | 0.00 | 0.00 | 0.00 | 51 | 1013.9 |
| 20260506015248 | 18 | 300 | 8.0 | 19.3 | 0.00 | 0.00 | 0.00 | 51 | 1013.7 |
| 20260506014748 | 18 | 302 | 4.8 | 22.5 | 0.00 | 0.00 | 0.00 | 50 | 1013.4 |
| 20260506012748 | 20 | 300 | 0.0 | 11.3 | 0.00 | 0.00 | 0.00 | 49 | 1013.3 |
| 20260506012248 | 20 | 297 | 1.6 | 16.1 | 0.00 | 0.00 | 0.00 | 48 | 1013.3 |
| 20260506011748 | 21 | 257 | 4.8 | 16.1 | 0.00 | 0.00 | 0.00 | 49 | 1013.4 |
| 20260506011248 | 21 | 311 | 6.4 | 16.1 | 0.00 | 0.00 | 0.00 | 48 | 1013.4 |
| 20260506010747 | 21 | 317 | 6.4 | 11.3 | 0.00 | 0.00 | 0.00 | 48 | 1013.3 |
| 20260506010248 | 21 | 269 | 11.3 | 19.3 | 0.00 | 0.00 | 0.00 | 47 | 1013.3 |
| 20260506005748 | 21 | 314 | 6.4 | 19.3 | 0.00 | 0.00 | 0.00 | 47 | 1013.3 |
| 20260506005248 | 22 | 303 | 0.0 | 19.3 | 0.00 | 0.00 | 0.00 | 46 | 1013.3 |
| 20260506004247 | 22 | 307 | 17.7 | 22.5 | 0.00 | 0.00 | 0.00 | 45 | 1013.3 |
| 20260506003747 | 22 | 360 | 1.6 | 20.9 | 0.00 | 0.00 | 0.00 | 44 | 1013.2 |
| 20260506003247 | 22 | 311 | 1.6 | 20.9 | 0.00 | 0.00 | 0.00 | 44 | 1013.3 |
| 20260506002748 | 22 | 321 | 4.8 | 17.7 | 0.00 | 0.00 | 0.00 | 44 | 1013.3 |
| 20260506002247 | 22 | 296 | 11.3 | 17.7 | 0.00 | 0.00 | 0.00 | 44 | 1013.3 |
| 20260506001747 | 22 | 335 | 6.4 | 17.7 | 0.00 | 0.00 | 0.00 | 44 | 1013.3 |
| 20260506000747 | 23 | 328 | 8.0 | 17.7 | 0.00 | 0.00 | 0.00 | 43 | 1013.3 |
| 20260506000247 | 23 | 315 | 17.7 | 17.7 | 0.00 | 0.00 | 0.00 | 43 | 1013.3 |
| 20260505235246 | 23 | 318 | 9.7 | 16.1 | 0.00 | 0.00 | 0.00 | 43 | 1013.1 |
| 20260505234747 | 23 | 343 | 11.3 | 19.3 | 0.00 | 0.00 | 0.00 | 43 | 1013.0 |
| 20260505234247 | 23 | 17 | 4.8 | 19.3 | 0.00 | 0.00 | 0.00 | 43 | 1013.1 |
| 20260505233747 | 23 | 317 | 16.1 | 22.5 | 0.00 | 0.00 | 0.00 | 42 | 1013.1 |
| 20260505233246 | 23 | 288 | 4.8 | 22.5 | 0.00 | 0.00 | 0.00 | 42 | 1013.2 |
| 20260505232746 | 23 | 321 | 1.6 | 17.7 | 0.00 | 0.00 | 0.00 | 42 | 1013.2 |
| 20260505232246 | 23 | 331 | 8.0 | 22.5 | 0.00 | 0.00 | 0.00 | 42 | 1013.2 |
| 20260505231746 | 24 | 302 | 9.7 | 22.5 | 0.00 | 0.00 | 0.00 | 41 | 1013.2 |
| 20260505230246 | 24 | 303 | 8.0 | 24.1 | 0.00 | 0.00 | 0.00 | 41 | 1013.4 |
| 20260505225745 | 24 | 346 | 9.7 | 22.5 | 0.00 | 0.00 | 0.00 | 40 | 1013.3 |
| 20260505224746 | 23 | 325 | 12.9 | 20.9 | 0.00 | 0.00 | 0.00 | 41 | 1013.4 |
| 20260505224246 | 23 | 299 | 8.0 | 20.9 | 0.00 | 0.00 | 0.00 | 41 | 1013.3 |
| 20260505223745 | 23 | 309 | 11.3 | 20.9 | 0.00 | 0.00 | 0.00 | 41 | 1013.3 |
| 20260505223245 | 23 | 303 | 3.2 | 19.3 | 0.00 | 0.03 | 0.00 | 42 | 1013.4 |
| 20260505222745 | 23 | 309 | 4.8 | 22.5 | 0.00 | 0.03 | 0.00 | 42 | 1013.3 |
| 20260505222245 | 22 | 332 | 4.8 | 22.5 | 0.00 | 0.03 | 0.00 | 43 | 1013.3 |
| 20260505221245 | 21 | 318 | 6.4 | 17.7 | 0.00 | 0.03 | 0.00 | 44 | 1013.4 |
| 20260505220745 | 21 | 327 | 4.8 | 17.7 | 0.00 | 0.03 | 0.00 | 45 | 1013.4 |
| 20260505215745 | 21 | 302 | 1.6 | 30.6 | 0.00 | 0.03 | 0.00 | 46 | 1013.5 |
| 20260505214745 | 21 | 317 | 9.7 | 24.1 | 0.00 | 0.03 | 0.00 | 45 | 1013.6 |
| 20260505214245 | 20 | 301 | 22.5 | 22.5 | 0.00 | 0.03 | 0.00 | 46 | 1013.5 |
| 20260505213744 | 20 | 304 | 4.8 | 22.5 | 0.00 | 0.03 | 0.00 | 46 | 1013.6 |
| 20260505213245 | 20 | 302 | 14.5 | 22.5 | 0.00 | 0.03 | 0.00 | 46 | 1013.6 |
| 20260505212744 | 20 | 229 | 4.8 | 22.5 | 0.00 | 0.03 | 0.00 | 46 | 1013.6 |
| 20260505212244 | 20 | 304 | 8.0 | 22.5 | 0.00 | 0.03 | 0.00 | 46 | 1013.6 |
| 20260505211744 | 20 | 311 | 22.5 | 22.5 | 0.00 | 0.03 | 0.00 | 46 | 1013.6 |
| 20260505211244 | 20 | 318 | 4.8 | 29.0 | 0.00 | 0.03 | 0.00 | 46 | 1013.6 |
| 20260505210744 | 21 | 313 | 12.9 | 29.0 | 0.00 | 0.03 | 0.00 | 45 | 1013.5 |
| 20260505205244 | 21 | 249 | 9.7 | 19.3 | 0.00 | 0.03 | 0.00 | 45 | 1013.5 |
| 20260505204744 | 21 | 295 | 0.0 | 29.0 | 0.00 | 0.03 | 0.00 | 45 | 1013.5 |
| 20260505203744 | 22 | 325 | 8.0 | 24.1 | 0.00 | 0.03 | 0.00 | 44 | 1013.6 |
| 20260505202743 | 22 | 286 | 14.5 | 22.5 | 0.00 | 0.03 | 0.00 | 42 | 1013.6 |
| 20260505202244 | 22 | 185 | 8.0 | 22.5 | 0.00 | 0.03 | 0.00 | 42 | 1013.6 |
| 20260505201744 | 22 | 302 | 6.4 | 20.9 | 0.00 | 0.03 | 0.00 | 42 | 1013.6 |
| 20260505201243 | 22 | 286 | 0.0 | 29.0 | 0.00 | 0.03 | 0.00 | 43 | 1013.7 |
| 20260505200744 | 22 | 288 | 6.4 | 29.0 | 0.00 | 0.03 | 0.00 | 43 | 1013.8 |
| 20260505200243 | 22 | 312 | 4.8 | 14.5 | 0.00 | 0.03 | 0.00 | 43 | 1013.7 |
| 20260505195243 | 22 | 275 | 6.4 | 22.5 | 0.00 | 0.03 | 0.00 | 42 | 1013.7 |
| 20260505194243 | 21 | 291 | 20.9 | 25.7 | 0.00 | 0.03 | 0.00 | 43 | 1013.8 |
| 20260505193742 | 21 | 312 | 4.8 | 19.3 | 0.00 | 0.03 | 0.00 | 44 | 1013.9 |
| 20260505193244 | 20 | 306 | 14.5 | 22.5 | 0.00 | 0.03 | 0.00 | 44 | 1014.0 |
| 20260505192743 | 21 | 264 | 6.4 | 22.5 | 0.00 | 0.03 | 0.00 | 43 | 1014.0 |
| 20260505192243 | 21 | 292 | 11.3 | 22.5 | 0.00 | 0.03 | 0.00 | 43 | 1014.0 |
| 20260505191743 | 21 | 309 | 3.2 | 20.9 | 0.00 | 0.03 | 0.00 | 43 | 1013.9 |
| 20260505191243 | 21 | 11 | 6.4 | 19.3 | 0.00 | 0.03 | 0.00 | 43 | 1013.9 |
| 20260505190742 | 21 | 318 | 6.4 | 19.3 | 0.00 | 0.03 | 0.00 | 43 | 1014.0 |
| 20260505190242 | 21 | 281 | 4.8 | 14.5 | 0.00 | 0.03 | 0.00 | 43 | 1013.9 |
| 20260505185742 | 21 | 281 | 4.8 | 12.9 | 0.00 | 0.03 | 0.00 | 43 | 1013.9 |
| 20260505185242 | 21 | 310 | 6.4 | 14.5 | 0.00 | 0.03 | 0.00 | 43 | 1013.9 |
| 20260505184242 | 21 | 294 | 11.3 | 17.7 | 0.00 | 0.03 | 0.00 | 41 | 1013.8 |
| 20260505183742 | 22 | 302 | 4.8 | 19.3 | 0.00 | 0.03 | 0.00 | 40 | 1013.8 |
| 20260505183242 | 22 | 292 | 9.7 | 19.3 | 0.00 | 0.03 | 0.00 | 40 | 1013.8 |
| 20260505182742 | 22 | 310 | 6.4 | 17.7 | 0.00 | 0.03 | 0.00 | 39 | 1013.9 |
| 20260505182241 | 21 | 341 | 6.4 | 17.7 | 0.00 | 0.03 | 0.00 | 39 | 1014.0 |
| 20260505181241 | 21 | 315 | 6.4 | 16.1 | 0.00 | 0.03 | 0.00 | 40 | 1014.1 |
| 20260505180741 | 20 | 306 | 4.8 | 19.3 | 0.00 | 0.03 | 0.00 | 40 | 1014.0 |
| 20260505180241 | 20 | 317 | 4.8 | 19.3 | 0.00 | 0.03 | 0.00 | 39 | 1014.1 |
| 20260505175242 | 20 | 306 | 0.0 | 14.5 | 0.00 | 0.03 | 0.00 | 39 | 1014.0 |
| 20260505174741 | 19 | 314 | 9.7 | 19.3 | 0.00 | 0.03 | 0.00 | 39 | 1013.9 |
| 20260505173741 | 19 | 338 | 0.0 | 16.1 | 0.00 | 0.03 | 0.00 | 38 | 1014.0 |
| 20260505172741 | 18 | 221 | 4.8 | 14.5 | 0.00 | 0.03 | 0.00 | 38 | 1013.9 |
| 20260505172241 | 18 | 240 | 1.6 | 14.5 | 0.00 | 0.03 | 0.00 | 37 | 1013.9 |
| 20260505171740 | 18 | 355 | 0.0 | 14.5 | 0.00 | 0.03 | 0.00 | 37 | 1013.9 |
| 20260505171241 | 18 | 310 | 0.0 | 22.5 | 0.00 | 0.03 | 0.00 | 37 | 1013.9 |
| 20260505170741 | 18 | 286 | 8.0 | 22.5 | 0.00 | 0.03 | 0.00 | 37 | 1013.9 |
| 20260505170241 | 18 | 294 | 14.5 | 20.9 | 0.00 | 0.03 | 0.00 | 36 | 1013.9 |
| 20260505165740 | 17 | 300 | 3.2 | 17.7 | 0.00 | 0.03 | 0.00 | 36 | 1013.9 |
| 20260505165241 | 17 | 331 | 1.6 | 16.1 | 0.00 | 0.03 | 0.00 | 36 | 1014.2 |
| 20260505164740 | 16 | 331 | 4.8 | 17.7 | 0.00 | 0.03 | 0.00 | 36 | 1014.3 |
| 20260505164240 | 16 | 300 | 9.7 | 19.3 | 0.00 | 0.03 | 0.00 | 36 | 1014.2 |
| 20260505163740 | 17 | 263 | 4.8 | 19.3 | 0.00 | 0.03 | 0.00 | 36 | 1014.1 |
| 20260505163240 | 17 | 257 | 6.4 | 19.3 | 0.00 | 0.03 | 0.00 | 35 | 1014.2 |
| 20260505162740 | 17 | 307 | 3.2 | 19.3 | 0.00 | 0.03 | 0.00 | 34 | 1014.1 |
| 20260505162240 | 16 | 311 | 9.7 | 17.7 | 0.00 | 0.03 | 0.00 | 34 | 1014.2 |
| 20260505161740 | 16 | 294 | 6.4 | 17.7 | 0.00 | 0.03 | 0.00 | 34 | 1014.1 |
| 20260505161240 | 16 | 295 | 1.6 | 14.5 | 0.00 | 0.03 | 0.00 | 33 | 1013.9 |
| 20260505160740 | 16 | 307 | 3.2 | 16.1 | 0.00 | 0.03 | 0.00 | 32 | 1014.0 |
| 20260505153240 | 13 | 298 | 8.0 | 16.1 | 0.00 | 0.03 | 0.00 | 20 | 1014.0 |
| 20260505152739 | 13 | 324 | 6.4 | 9.7 | 0.00 | 0.03 | 0.00 | 17 | 1014.0 |
| 20260505151739 | 13 | 277 | 0.0 | 6.4 | 0.00 | 0.03 | 0.00 | 14 | 1014.1 |
| 20260505151239 | 13 | 279 | 0.0 | 6.4 | 0.00 | 0.03 | 0.00 | 14 | 1013.8 |
| 20260505150739 | 12 | 285 | 0.0 | 4.8 | 0.00 | 0.03 | 0.00 | 13 | 1013.7 |
| 20260505150239 | 12 | 284 | 1.6 | 4.8 | 0.00 | 0.03 | 0.00 | 13 | 1013.7 |
| 20260505140238 | 9 | 292 | 0.0 | 0.0 | 0.00 | 0.03 | 0.00 | 15 | 1013.8 |
| 20260505130237 | 9 | 301 | 0.0 | 0.0 | 0.00 | 0.03 | 0.00 | 15 | 1013.6 |
| 20260505124737 | 9 | 301 | 0.0 | 0.0 | 0.00 | 0.03 | 0.00 | 15 | 1013.7 |
| 20260505124237 | 9 | 301 | 0.0 | 0.0 | 0.00 | 0.03 | 0.00 | 15 | 1013.7 |
| 20260505123737 | 9 | 301 | 0.0 | 0.0 | 0.00 | 0.03 | 0.00 | 15 | 1013.7 |
| 20260505122738 | 8 | 300 | 0.0 | 0.0 | 0.00 | 0.03 | 0.00 | 15 | 1013.6 |
| 20260505122237 | 8 | 301 | 0.0 | 0.0 | 0.00 | 0.03 | 0.00 | 15 | 1013.6 |
| 20260505121737 | 8 | 301 | 0.0 | 0.0 | 0.00 | 0.03 | 0.00 | 15 | 1013.7 |
| 20260505121237 | 8 | 300 | 0.0 | 0.0 | 0.00 | 0.03 | 0.00 | 15 | 1013.6 |
| 20260505120736 | 8 | 301 | 0.0 | 0.0 | 0.00 | 0.03 | 0.00 | 15 | 1013.6 |
| 20260505120236 | 8 | 301 | 0.0 | 0.0 | 0.00 | 0.03 | 0.00 | 15 | 1013.6 |
| 20260505115736 | 8 | 300 | 0.0 | 0.0 | 0.00 | 0.03 | 0.00 | 16 | 1013.7 |
| 20260505115236 | 8 | 300 | 0.0 | 0.0 | 0.00 | 0.03 | 0.00 | 16 | 1013.6 |
| 20260505114737 | 8 | 301 | 0.0 | 0.0 | 0.00 | 0.03 | 0.00 | 16 | 1013.6 |
| 20260505114236 | 8 | 301 | 0.0 | 0.0 | 0.00 | 0.03 | 0.00 | 16 | 1013.6 |
| 20260505113236 | 8 | 300 | 0.0 | 0.0 | 0.00 | 0.03 | 0.00 | 16 | 1013.6 |
| 20260505112736 | 8 | 301 | 0.0 | 0.0 | 0.00 | 0.03 | 0.00 | 16 | 1013.7 |
| 20260505112236 | 8 | 301 | 0.0 | 0.0 | 0.00 | 0.03 | 0.00 | 16 | 1013.6 |
| 20260505111736 | 8 | 300 | 0.0 | 0.0 | 0.00 | 0.03 | 0.00 | 16 | 1013.6 |
| 20260505111236 | 8 | 301 | 0.0 | 0.0 | 0.00 | 0.03 | 0.00 | 17 | 1013.6 |
| 20260505110737 | 8 | 301 | 0.0 | 0.0 | 0.00 | 0.03 | 0.00 | 17 | 1013.6 |
| 20260505110236 | 8 | 301 | 0.0 | 0.0 | 0.00 | 0.03 | 0.00 | 17 | 1013.6 |
| 20260505101735 | 10 | 300 | 0.0 | 0.0 | 0.00 | 0.03 | 0.00 | 16 | 1013.6 |
| 20260505101235 | 10 | 301 | 0.0 | 0.0 | 0.00 | 0.03 | 0.00 | 16 | 1013.7 |
| 20260505100735 | 10 | 301 | 0.0 | 0.0 | 0.00 | 0.03 | 0.00 | 16 | 1013.7 |
| 20260505095735 | 9 | 301 | 0.0 | 0.0 | 0.00 | 0.03 | 0.00 | 17 | 1013.8 |
| 20260505094735 | 9 | 301 | 0.0 | 0.0 | 0.00 | 0.03 | 0.00 | 17 | 1013.9 |
| 20260505094235 | 9 | 300 | 0.0 | 0.0 | 0.00 | 0.03 | 0.00 | 17 | 1013.9 |
| 20260505093734 | 9 | 301 | 0.0 | 0.0 | 0.00 | 0.03 | 0.00 | 18 | 1014.0 |
| 20260505093234 | 9 | 301 | 0.0 | 0.0 | 0.00 | 0.03 | 0.00 | 18 | 1014.0 |
| 20260505092734 | 9 | 301 | 0.0 | 0.0 | 0.00 | 0.03 | 0.00 | 18 | 1014.0 |
| 20260505091734 | 10 | 301 | 0.0 | 0.0 | 0.00 | 0.03 | 0.00 | 18 | 1014.2 |
| 20260505091234 | 10 | 301 | 0.0 | 0.0 | 0.00 | 0.03 | 0.00 | 18 | 1014.2 |
| 20260505090735 | 10 | 300 | 0.0 | 0.0 | 0.00 | 0.03 | 0.00 | 18 | 1014.3 |
| 20260505090234 | 10 | 300 | 0.0 | 0.0 | 0.00 | 0.03 | 0.00 | 19 | 1014.3 |
| 20260505085733 | 10 | 301 | 0.0 | 0.0 | 0.00 | 0.03 | 0.00 | 19 | 1014.2 |
| 20260505085234 | 10 | 301 | 0.0 | 0.0 | 0.00 | 0.03 | 0.00 | 19 | 1014.3 |
| 20260505084734 | 10 | 300 | 0.0 | 0.0 | 0.00 | 0.03 | 0.00 | 19 | 1014.4 |
| 20260505084233 | 10 | 301 | 0.0 | 0.0 | 0.00 | 0.03 | 0.00 | 19 | 1014.4 |
| 20260505083734 | 10 | 301 | 0.0 | 0.0 | 0.00 | 0.03 | 0.00 | 19 | 1014.4 |
| 20260505083234 | 10 | 301 | 0.0 | 0.0 | 0.00 | 0.03 | 0.00 | 19 | 1014.5 |
| 20260505082733 | 10 | 300 | 0.0 | 0.0 | 0.00 | 0.03 | 0.00 | 19 | 1014.4 |
| 20260505082233 | 10 | 301 | 0.0 | 0.0 | 0.00 | 0.03 | 0.00 | 19 | 1014.5 |
| 20260505081233 | 10 | 301 | 0.0 | 0.0 | 0.00 | 0.03 | 0.00 | 18 | 1014.6 |
| 20260505080233 | 10 | 300 | 0.0 | 0.0 | 0.00 | 0.03 | 0.00 | 18 | 1014.6 |
| 20260505075733 | 10 | 301 | 0.0 | 0.0 | 0.00 | 0.03 | 0.00 | 18 | 1014.7 |
| 20260505075233 | 10 | 300 | 0.0 | 0.0 | 0.00 | 0.03 | 0.00 | 19 | 1014.7 |
| 20260505074734 | 10 | 301 | 0.0 | 0.0 | 0.00 | 0.03 | 0.00 | 20 | 1014.7 |
| 20260505074233 | 10 | 301 | 0.0 | 0.0 | 0.00 | 0.03 | 0.00 | 20 | 1014.7 |
| 20260505073733 | 10 | 301 | 0.0 | 0.0 | 0.00 | 0.03 | 0.00 | 20 | 1014.8 |
| 20260505073234 | 10 | 300 | 0.0 | 0.0 | 0.00 | 0.03 | 0.00 | 21 | 1014.7 |
| 20260505072733 | 10 | 300 | 0.0 | 0.0 | 0.00 | 0.03 | 0.00 | 21 | 1014.7 |
| 20260505071733 | 10 | 300 | 0.0 | 0.0 | 0.00 | 0.03 | 0.00 | 22 | 1014.6 |
| 20260505071232 | 10 | 301 | 0.0 | 0.0 | 0.00 | 0.03 | 0.00 | 22 | 1014.7 |
| 20260505070732 | 10 | 301 | 0.0 | 0.0 | 0.00 | 0.03 | 0.00 | 23 | 1014.6 |
| 20260505070232 | 10 | 301 | 0.0 | 0.0 | 0.00 | 0.03 | 0.00 | 24 | 1014.5 |
| 20260505065732 | 10 | 300 | 0.0 | 0.0 | 0.00 | 0.03 | 0.03 | 24 | 1014.5 |
| 20260505065232 | 10 | 300 | 0.0 | 0.0 | 0.00 | 0.03 | 0.03 | 25 | 1014.3 |
| 20260505064231 | 10 | 301 | 0.0 | 0.0 | 0.00 | 0.03 | 0.03 | 26 | 1014.4 |
| 20260505063731 | 10 | 301 | 0.0 | 0.0 | 0.00 | 0.03 | 0.03 | 26 | 1014.5 |
| 20260505063231 | 10 | 300 | 0.0 | 0.0 | 0.00 | 0.03 | 0.03 | 28 | 1014.4 |
| 20260505062731 | 10 | 301 | 0.0 | 0.0 | 0.00 | 0.03 | 0.03 | 28 | 1014.3 |
| 20260505062231 | 10 | 301 | 0.0 | 0.0 | 0.00 | 0.03 | 0.03 | 29 | 1014.3 |
| 20260505061731 | 10 | 300 | 0.0 | 0.0 | 0.00 | 0.03 | 0.03 | 29 | 1014.3 |
| 20260505061231 | 10 | 300 | 0.0 | 0.0 | 0.00 | 0.03 | 0.03 | 30 | 1014.3 |
| 20260505060731 | 10 | 301 | 0.0 | 0.0 | 0.00 | 0.03 | 0.03 | 30 | 1014.4 |
| 20260505060231 | 10 | 301 | 0.0 | 0.0 | 0.00 | 0.03 | 0.03 | 31 | 1014.4 |
| 20260505055731 | 10 | 301 | 0.0 | 0.0 | 0.00 | 0.03 | 0.03 | 32 | 1014.4 |
| 20260505055231 | 10 | 301 | 0.0 | 0.0 | 0.00 | 0.03 | 0.03 | 32 | 1014.5 |
| 20260505054731 | 10 | 301 | 0.0 | 0.0 | 0.00 | 0.03 | 0.03 | 33 | 1014.4 |
| 20260505054231 | 10 | 301 | 0.0 | 0.0 | 0.00 | 0.03 | 0.03 | 33 | 1014.4 |
| 20260505053731 | 10 | 300 | 0.0 | 0.0 | 0.00 | 0.03 | 0.03 | 34 | 1014.4 |
| 20260505052231 | 11 | 300 | 0.0 | 0.0 | 0.00 | 0.03 | 0.03 | 37 | 1014.7 |
| 20260505051731 | 11 | 300 | 0.0 | 0.0 | 0.00 | 0.03 | 0.03 | 38 | 1014.7 |
| 20260505051230 | 11 | 301 | 0.0 | 0.0 | 0.00 | 0.03 | 0.03 | 39 | 1014.7 |
| 20260505050730 | 11 | 301 | 0.0 | 0.0 | 0.00 | 0.03 | 0.03 | 39 | 1014.7 |